Location: Unspecified
(28.1530°N, 80.6520°W)
Time: 22:48:50
(UTC+02:00)

Hubble Space Telescope - Visible Passes

Search period start: 26 May 2017 00:00
Search period end: 05 June 2017 00:00
Orbit: 538 x 541 km, 28.5° (Epoch: 25 May)

Date Brightness Start Highest point End Pass type
(mag) Time Alt. Az. Time Alt. Az. Time Alt. Az.
26 May 2.7 03:05:32 10° S 03:07:17 13° SSE 03:07:17 13° SSE visible
26 May 2.8 11:32:49 12° SSW 11:32:49 12° SSW 11:34:08 10° S visible
27 May 2.4 02:54:36 10° SSW 02:57:17 17° SSE 02:58:56 14° SE visible
27 May 3.4 04:34:08 10° WSW 04:34:23 11° WSW 04:34:23 11° WSW visible
28 May 2.1 02:43:59 10° SSW 02:47:09 21° SSE 02:50:20 10° ESE visible
28 May 2.5 04:24:00 10° WSW 04:25:50 25° WSW 04:25:50 25° WSW visible
29 May 1.9 02:33:32 10° SW 02:37:02 27° SSE 02:40:33 10° E visible
29 May 1.3 04:13:55 10° WSW 04:17:03 49° SW 04:17:03 49° SW visible
30 May 0.6 04:03:51 10° WSW 04:07:59 81° S 04:08:03 80° SSE visible
31 May 0.6 03:53:48 10° W 03:57:57 88° S 03:58:52 53° E visible
01 Jun 0.7 03:43:46 10° W 03:47:55 87° N 03:49:32 36° E visible
02 Jun 0.7 03:33:45 10° W 03:37:53 85° N 03:40:06 27° E visible
02 Jun 3.6 05:15:01 10° W 05:15:28 13° W 05:15:28 13° W visible
03 Jun 0.7 03:23:43 10° W 03:27:52 84° N 03:30:34 21° E visible
03 Jun 3.3 05:04:59 10° W 05:05:56 16° W 05:05:56 16° W visible
04 Jun 0.7 03:13:41 10° W 03:17:50 87° N 03:20:59 17° E visible
04 Jun 3.0 04:54:59 10° W 04:56:20 20° W 04:56:20 20° W visible
